User: anonymous   Login
Location: Dackenheim
(49.5215°N, 8.1854°E)
Time: 14:15:14
(UTC+00:00)
Language:

BlueWalker 3 - Orbit

View from above orbital plane
View from above orbital plane
View from above satellite
View from above satellite

Ground track
Ground track

The orbit is defined by the following mean orbital elements,

1 53807U          26047.92743984 +.00000000 +00000-0 +20621-3 0 00005
2 53807  53.2283 237.9515 0007328 153.0426 207.0960 15.36808083    07
Epoch (UTC): 16 February 2026 22:15:30
Eccentricity: 0.0007328
inclination: 53.2283°
perigee height: 451 km
apogee height: 461 km
right ascension of ascending node: 237.9515°
argument of perigee: 153.0426°
revolutions per day: 15.36808083
mean anomaly at epoch: 207.0960°

The dashed part of the orbit path shows where the satellite is in the earth's shadow,  

DLR